Hourly Weather Abay (Aralskiy rayon)

Today, 21 October, Wednesday

Time Temperature Precipitation Wind Pressure Humidity
00:00 +13°C° 0 mm 4 mps 751 mmHg 43%
01:00 +12°C° 0 mm 4 mps 751 mmHg 46%
02:00 +12°C° 0 mm 4 mps 751 mmHg 51%
03:00 +11°C° 0 mm 4 mps 751 mmHg 55%
04:00 +11°C° 0 mm 4 mps 751 mmHg 60%
05:00 +9°C° 0 mm 5 mps 751 mmHg 55%
06:00 +9°C° 0 mm 6 mps 751 mmHg 51%
07:00 +8°C° 0 mm 7 mps 751 mmHg 46%
08:00 +9°C° 0 mm 7 mps 752 mmHg 46%
09:00 +10°C° 0 mm 8 mps 753 mmHg 47%
10:00 +11°C° 0 mm 9 mps 753 mmHg 47%
11:00 +11°C° 0 mm 9 mps 753 mmHg 40%
12:00 +12°C° 0 mm 9 mps 754 mmHg 34%
13:00 +12°C° 0 mm 9 mps 754 mmHg 27%
14:00 +12°C° 0 mm 8 mps 754 mmHg 28%
15:00 +12°C° 0 mm 8 mps 755 mmHg 29%
16:00 +11°C° 0 mm 7 mps 755 mmHg 30%
17:00 +10°C° 0 mm 7 mps 755 mmHg 29%
18:00 +9°C° 0 mm 6 mps 755 mmHg 29%
19:00 +8°C° 0 mm 5 mps 756 mmHg 29%
20:00 +7°C° 0 mm 5 mps 756 mmHg 30%
21:00 +7°C° 0 mm 5 mps 756 mmHg 32%
22:00 +6°C° 0 mm 4 mps 756 mmHg 33%
23:00 +5°C° 0 mm 4 mps 756 mmHg 35%

Tomorrow, 22 October, Thursday

Time Temperature Precipitation Wind Pressure Humidity
00:00 +5°C° 0 mm 4 mps 756 mmHg 37%
01:00 +5°C° 0 mm 4 mps 756 mmHg 40%
02:00 +4°C° 0 mm 4 mps 757 mmHg 43%
03:00 +4°C° 0 mm 4 mps 757 mmHg 47%
04:00 +3°C° 0 mm 4 mps 757 mmHg 51%
05:00 +3°C° 0 mm 4 mps 757 mmHg 52%
06:00 +2°C° 0 mm 5 mps 757 mmHg 53%
07:00 +2°C° 0 mm 5 mps 758 mmHg 54%
08:00 +3°C° 0 mm 6 mps 758 mmHg 50%
09:00 +5°C° 0 mm 6 mps 758 mmHg 47%
10:00 +6°C° 0 mm 7 mps 759 mmHg 43%
11:00 +6°C° 0 mm 7 mps 758 mmHg 41%
12:00 +6°C° 0 mm 7 mps 758 mmHg 38%
13:00 +7°C° 0 mm 6 mps 758 mmHg 36%
14:00 +7°C° 0 mm 6 mps 758 mmHg 37%
15:00 +7°C° 0 mm 5 mps 758 mmHg 37%
16:00 +7°C° 0 mm 5 mps 758 mmHg 37%
17:00 +6°C° 0 mm 4 mps 758 mmHg 41%
18:00 +4°C° 0 mm 3 mps 758 mmHg 45%
19:00 +4°C° 0 mm 2 mps 759 mmHg 48%
20:00 +3°C° 0 mm 2 mps 759 mmHg 49%
21:00 +3°C° 0 mm 2 mps 759 mmHg 50%
22:00 +3°C° 0 mm 2 mps 759 mmHg 51%
23:00 +2°C° 0 mm 2 mps 759 mmHg 51%

Day after tomorrow, 23 October, Friday

Time Temperature Precipitation Wind Pressure Humidity
00:00 +2°C° 0 mm 2 mps 759 mmHg 51%
01:00 +1°C° 0 mm 2 mps 759 mmHg 51%
02:00 +1°C° 0 mm 2 mps 759 mmHg 51%
03:00 -1°C° 0 mm 2 mps 759 mmHg 52%
04:00 -1°C° 0 mm 2 mps 759 mmHg 53%
05:00 -1°C° 0 mm 2 mps 760 mmHg 53%
06:00 -1°C° 0 mm 2 mps 760 mmHg 54%
07:00 -1°C° 0 mm 2 mps 760 mmHg 55%
08:00 +1°C° 0 mm 3 mps 761 mmHg 49%
09:00 +2°C° 0 mm 3 mps 761 mmHg 44%
10:00 +4°C° 0 mm 3 mps 761 mmHg 38%
11:00 +5°C° 0 mm 3 mps 761 mmHg 35%
12:00 +6°C° 0 mm 4 mps 761 mmHg 32%
13:00 +6°C° 0 mm 4 mps 761 mmHg 30%
14:00 +6°C° 0 mm 4 mps 761 mmHg 29%
15:00 +7°C° 0 mm 3 mps 761 mmHg 29%
16:00 +7°C° 0 mm 3 mps 761 mmHg 29%
17:00 +5°C° 0 mm 2 mps 762 mmHg 35%
18:00 +4°C° 0 mm 1 mps 762 mmHg 40%
19:00 +1°C° 0 mm 0 mps 762 mmHg 46%
20:00 +2°C° 0 mm 1 mps 762 mmHg 44%
21:00 +2°C° 0 mm 2 mps 762 mmHg 43%
22:00 +3°C° 0 mm 2 mps 763 mmHg 41%
23:00 +2°C° 0 mm 3 mps 763 mmHg 43%

24 October, Saturday

Time Temperature Precipitation Wind Pressure Humidity
00:00 +2°C° 0 mm 3 mps 762 mmHg 44%
01:00 +2°C° 0 mm 3 mps 762 mmHg 45%
02:00 +2°C° 0 mm 3 mps 762 mmHg 47%
03:00 +1°C° 0 mm 4 mps 762 mmHg 49%
04:00 +1°C° 0 mm 4 mps 762 mmHg 51%
05:00 +1°C° 0 mm 4 mps 762 mmHg 49%
06:00 +1°C° 0 mm 4 mps 763 mmHg 47%
07:00 +1°C° 0 mm 4 mps 763 mmHg 45%
08:00 +3°C° 0 mm 5 mps 763 mmHg 40%
09:00 +5°C° 0 mm 6 mps 762 mmHg 35%
10:00 +8°C° 0 mm 6 mps 762 mmHg 30%
11:00 +8°C° 0 mm 6 mps 762 mmHg 28%
12:00 +9°C° 0 mm 7 mps 762 mmHg 27%
13:00 +10°C° 0 mm 7 mps 762 mmHg 26%
14:00 +10°C° 0 mm 6 mps 762 mmHg 27%
15:00 +10°C° 0 mm 6 mps 761 mmHg 29%
16:00 +9°C° 0 mm 5 mps 761 mmHg 30%
17:00 +8°C° 0 mm 5 mps 761 mmHg 36%
18:00 +8°C° 0 mm 5 mps 761 mmHg 42%
19:00 +7°C° 0 mm 5 mps 760 mmHg 48%
20:00 +7°C° 0 mm 5 mps 760 mmHg 50%
21:00 +8°C° 0 mm 6 mps 760 mmHg 52%
22:00 +8°C° 0 mm 7 mps 760 mmHg 54%
23:00 +8°C° 0.2 mm 7 mps 760 mmHg 57%

25 October, Sunday

Time Temperature Precipitation Wind Pressure Humidity
00:00 +8°C° 0.2 mm 7 mps 759 mmHg 60%
01:00 +7°C° 0.2 mm 8 mps 759 mmHg 64%
02:00 +7°C° 0.2 mm 8 mps 759 mmHg 67%
03:00 +9°C° 0.2 mm 8 mps 759 mmHg 70%
04:00 +8°C° 0.2 mm 9 mps 759 mmHg 73%
05:00 +10°C° 0 mm 8 mps 759 mmHg 72%
06:00 +10°C° 0 mm 7 mps 759 mmHg 71%
07:00 +10°C° 0 mm 7 mps 759 mmHg 70%
08:00 +11°C° 0 mm 7 mps 759 mmHg 65%
09:00 +14°C° 0 mm 7 mps 759 mmHg 59%
10:00 +15°C° 0 mm 7 mps 759 mmHg 54%
11:00 +17°C° 0 mm 8 mps 759 mmHg 48%
12:00 +18°C° 0 mm 8 mps 759 mmHg 42%
13:00 +20°C° 0 mm 8 mps 759 mmHg 36%
14:00 +20°C° 0 mm 7 mps 759 mmHg 38%
15:00 +18°C° 0 mm 7 mps 759 mmHg 40%
16:00 +18°C° 0 mm 7 mps 758 mmHg 41%
17:00 +16°C° 0 mm 7 mps 759 mmHg 45%
18:00 +15°C° 0 mm 6 mps 759 mmHg 49%
19:00 +14°C° 0 mm 6 mps 759 mmHg 53%
20:00 +14°C° 0 mm 6 mps 759 mmHg 54%
21:00 +13°C° 0 mm 5 mps 759 mmHg 55%
22:00 +13°C° 0 mm 5 mps 760 mmHg 56%
23:00 +13°C° 0 mm 5 mps 760 mmHg 57%

26 October, Monday

Time Temperature Precipitation Wind Pressure Humidity
00:00 +13°C° 0 mm 5 mps 760 mmHg 58%
01:00 +12°C° 0 mm 4 mps 760 mmHg 59%
02:00 +12°C° 0 mm 4 mps 760 mmHg 58%
03:00 +12°C° 0 mm 4 mps 760 mmHg 57%
04:00 +13°C° 0 mm 4 mps 760 mmHg 56%
05:00 +12°C° 0 mm 4 mps 760 mmHg 57%
06:00 +12°C° 0 mm 4 mps 760 mmHg 59%
07:00 +11°C° 0 mm 4 mps 760 mmHg 60%
08:00 +13°C° 0 mm 4 mps 760 mmHg 53%
09:00 +15°C° 0 mm 5 mps 760 mmHg 46%
10:00 +17°C° 0 mm 5 mps 760 mmHg 39%
11:00 +19°C° 0 mm 5 mps 760 mmHg 35%
12:00 +20°C° 0 mm 5 mps 760 mmHg 31%
13:00 +21°C° 0 mm 5 mps 760 mmHg 28%
14:00 +20°C° 0 mm 5 mps 759 mmHg 29%
15:00 +20°C° 0 mm 4 mps 759 mmHg 29%
16:00 +19°C° 0 mm 4 mps 759 mmHg 30%
17:00 +18°C° 0 mm 4 mps 759 mmHg 32%
18:00 +17°C° 0 mm 4 mps 759 mmHg 35%
19:00 +16°C° 0 mm 3 mps 759 mmHg 37%
20:00 +15°C° 0 mm 4 mps 758 mmHg 38%
21:00 +15°C° 0 mm 4 mps 758 mmHg 39%
22:00 +14°C° 0 mm 4 mps 758 mmHg 40%
23:00 +14°C° 0 mm 4 mps 758 mmHg 42%

27 October, Tuesday

Time Temperature Precipitation Wind Pressure Humidity
00:00 +13°C° 0 mm 4 mps 758 mmHg 43%
01:00 +13°C° 0 mm 4 mps 758 mmHg 44%
02:00 +13°C° 0 mm 4 mps 758 mmHg 44%
03:00 +12°C° 0 mm 4 mps 758 mmHg 44%
04:00 +12°C° 0 mm 4 mps 757 mmHg 45%
05:00 +12°C° 0 mm 4 mps 757 mmHg 45%
06:00 +12°C° 0 mm 4 mps 757 mmHg 45%
07:00 +12°C° 0 mm 4 mps 757 mmHg 45%
08:00 +13°C° 0 mm 5 mps 757 mmHg 41%
09:00 +15°C° 0 mm 5 mps 757 mmHg 37%
10:00 +16°C° 0 mm 6 mps 757 mmHg 33%
11:00 +17°C° 0 mm 5 mps 756 mmHg 32%
12:00 +19°C° 0 mm 5 mps 756 mmHg 31%
13:00 +20°C° 0 mm 5 mps 756 mmHg 30%
14:00 +20°C° 0 mm 5 mps 756 mmHg 31%
15:00 +20°C° 0 mm 4 mps 755 mmHg 32%
16:00 +19°C° 0 mm 4 mps 755 mmHg 33%
17:00 +18°C° 0 mm 4 mps 755 mmHg 37%
18:00 +17°C° 0 mm 4 mps 755 mmHg 41%
19:00 +16°C° 0 mm 3 mps 755 mmHg 44%
20:00 +14°C° 0 mm 4 mps 755 mmHg 46%
21:00 +14°C° 0 mm 4 mps 755 mmHg 48%
22:00 +13°C° 0 mm 4 mps 755 mmHg 50%
23:00 +13°C° 0 mm 3 mps 755 mmHg 52%
Show more